Content
SEND FEEDBACK

Daily
Averages
Monthly
Summary
Canada

QUEBEC CITY, QUEBEC


Home > North America > Canada > Quebec
Elevation: 72 meters     Latitude: 46 48N     Longitude: 071 23W

WEATHER
 
SELECT A DAY
Number of Records: 195,782;   Date Range: 6/30/96 - 10/20/14
 
SHARE

PRINT THIS DATA

[ ← Previous Day ]
WEATHER ALMANAC - 15 SEPTEMBER, 2013
[ Next Day → ]
[ °F ]   °C
Weather ElementAverageHighLow
Temperature12.7 °C18 °C (4:00 pm)9 °C (5:00 am)
Dewpoint8.6 °C12.2 °C (11:00 pm) (7:00 pm)
Humidity83.7 %94 % (1:00 am)64 % (4:00 pm)
Barometer953.6 hPa1017.3 hPa (9:00 am) (7:00 pm)
Wind Speed16.9 km/h24.1 km/h (6:00 am)
Wind Gust33.3 km/h (4:00 pm)
Weather ElementAverage
Visibility34.4 km
Wind DirectionWSW (243.9 °)

Weather ElementTotal
Precipitation---
Heating Degree Days4.8 (Base 18.3)
Growing Degree Days3.5 (Base 10)
Averaged from 33 records on 15 September, 2013
WEATHER CONDITIONS BREAKOUT
WIND DIRECTION BREAKOUT
WEATHER BY HOUR - 15 SEPTEMBER, 2013
[ °F ]   °C
Local TimeTemperatureDewpointHumidityBarometerVisibilityWind DirectionWind SpeedGust SpeedPrecipitationEventsConditions
1:00 AM12 °C11 °C94 %1015.6 hPa16.1 kmWSW (240°)16.7 km/hOvercast
2:00 AM11.7 °C11.1 °C93 %1015.2 hPaSW (230°)9.3 km/h
2:00 AM12 °C11 °C94 %1015.9 hPa16.1 kmWSW (240°)13 km/hMostly Cloudy
3:00 AM10 °C9 °C94 %1015.9 hPa24.1 kmWSW (240°)13 km/hScattered Clouds
4:00 AM10 °C9 °C94 %1015.9 hPa24.1 kmWSW (250°)14.8 km/hMostly Cloudy
5:00 AM9.4 °C8.3 °C92 %1015.6 hPaWSW (240°)11.1 km/h
5:00 AM9 °C8 °C93 %1015.9 hPa24.1 kmWSW (240°)20.4 km/hScattered Clouds
6:00 AM9 °C8 °C93 %1016.3 hPa24.1 kmWSW (240°)24.1 km/hMostly Cloudy
6:40 AM9 °C-17.8 °C40.2 kmWSW (240°)16.7 km/hMostly Cloudy
7:00 AM9 °C8 °C93 %1016.6 hPa40.2 kmWSW (240°)20.4 km/hMostly Cloudy
8:00 AM9.4 °C8.3 °C91 %1016.6 hPaWSW (250°)14.8 km/h
8:00 AM9 °C8 °C93 %1016.9 hPa40.2 kmWSW (250°)16.7 km/hOvercast
8:39 AM10 °C-17.8 °C40.2 kmWSW (240°)22.2 km/hMostly Cloudy
9:00 AM10 °C8 °C87 %1017.3 hPa40.2 kmWSW (240°)22.2 km/hMostly Cloudy
10:00 AM10 °C8 °C87 %1017.3 hPa40.2 kmWSW (240°)20.4 km/hMostly Cloudy
11:00 AM12 °C9 °C82 %1016.6 hPa40.2 kmWSW (250°)16.7 km/h27.8 km/hMostly Cloudy
11:00 AM11.7 °C8.9 °C79 %1015.9 hPaWSW (250°)14.8 km/h
12:00 PM13 °C10 °C82 %1016.6 hPa40.2 kmWSW (240°)18.5 km/hOvercast
1:00 PM15 °C11 °C77 %1015.9 hPa40.2 kmWest (260°)11.1 km/hOvercast
2:00 PM16.1 °C11.7 °C69 %1014.6 hPaWest (260°)18.5 km/h
2:00 PM16 °C12 °C77 %1015.6 hPa40.2 kmWest (260°)22.2 km/hMostly Cloudy
3:00 PM17 °C11 °C68 %1014.9 hPa48.3 kmWSW (250°)24.1 km/hMostly Cloudy
4:00 PM18 °C11 °C64 %1013.9 hPa48.3 kmWSW (250°)20.4 km/h33.3 km/hMostly Cloudy
5:00 PM17 °C12 °C72 %1014.2 hPa48.3 kmWSW (250°)18.5 km/hOvercast
5:00 PM16.7 °C11.7 °C66 %1013.5 hPaWest (260°)13 km/h
6:00 PM16 °C12 °C77 %1014.2 hPa48.3 kmWSW (240°)20.4 km/hOvercast
7:00 PM16 °C11 °C72 %1013.9 hPa48.3 kmSW (230°)18.5 km/hOvercast
8:00 PM15 °C11.7 °C73 %1013.5 hPaWSW (240°)11.1 km/h
8:00 PM15 °C11 °C77 %1014.2 hPa24.1 kmSW (230°)22.2 km/hOvercast
9:00 PM15 °C12 °C82 %1013.9 hPa24.1 kmWSW (250°)18.5 km/hOvercast
10:00 PM13 °C12 °C94 %1013.9 hPa24.1 kmSW (230°)13 km/hOvercast
11:00 PM13.3 °C12.2 °C91 %1012.9 hPaWSW (240°)7.4 km/h
11:00 PM13 °C12 °C94 %1013.9 hPa16.1 kmWSW (240°)14.8 km/hRainLight Rain Showers
Hourly data recorded from CYQB, located 0 kilometers away from Quebec City, Quebec







STORIES FROM OUR PARTNERS